TimeEST,TemperatureF,Dew PointF,Humidity,Sea Level PressureIn,VisibilityMPH,Wind Direction,Wind SpeedMPH,Gust SpeedMPH,PrecipitationIn,Events,Conditions,WindDirDegrees,DateUTC
12:54 AM,28.0,23.0,81,30.35,8.0,Calm,Calm,-,N/A,,Clear,0,2012-11-30 05:54:00
1:54 AM,26.1,23.0,88,30.36,7.0,NNW,3.5,-,N/A,,Clear,330,2012-11-30 06:54:00
2:54 AM,26.1,21.9,84,30.36,7.0,Calm,Calm,-,N/A,,Clear,0,2012-11-30 07:54:00
4:54 AM,25.0,23.0,92,30.35,5.0,NNW,3.5,-,N/A,,Clear,340,2012-11-30 09:54:00
5:54 AM,24.1,21.9,91,30.37,6.0,NNW,3.5,-,N/A,,Clear,340,2012-11-30 10:54:00
6:54 AM,26.1,23.0,88,30.39,6.0,Calm,Calm,-,N/A,,Mostly Cloudy,0,2012-11-30 11:54:00
7:27 AM,26.6,24.8,93,30.35,2.5,Calm,Calm,-,N/A,,Overcast,0,2012-11-30 12:27:00
7:38 AM,28.4,26.6,93,30.36,3.0,Calm,Calm,-,N/A,,Overcast,0,2012-11-30 12:38:00
7:54 AM,28.9,25.0,85,30.39,5.0,Calm,Calm,-,N/A,,Mostly Cloudy,0,2012-11-30 12:54:00
8:54 AM,30.9,27.0,85,30.40,5.0,Calm,Calm,-,N/A,,Overcast,0,2012-11-30 13:54:00
9:54 AM,33.1,28.0,82,30.41,6.0,Calm,Calm,-,N/A,,Haze,0,2012-11-30 14:54:00
10:54 AM,39.0,30.0,70,30.40,6.0,Calm,Calm,-,N/A,,Haze,0,2012-11-30 15:54:00
11:54 AM,44.1,28.9,55,30.38,9.0,Calm,Calm,-,N/A,,Clear,0,2012-11-30 16:54:00
12:54 PM,46.0,28.0,50,30.38,10.0,WNW,3.5,-,N/A,,Mostly Cloudy,300,2012-11-30 17:54:00
1:54 PM,46.9,28.9,50,30.37,10.0,Calm,Calm,-,N/A,,Scattered Clouds,0,2012-11-30 18:54:00
2:54 PM,46.9,26.1,44,30.35,10.0,Variable,4.6,-,0.00,,Scattered Clouds,0,2012-11-30 19:54:00
3:54 PM,46.0,25.0,44,30.35,10.0,ESE,3.5,-,N/A,,Scattered Clouds,110,2012-11-30 20:54:00
4:54 PM,44.1,25.0,47,30.37,10.0,ESE,4.6,-,N/A,,Partly Cloudy,110,2012-11-30 21:54:00
5:54 PM,39.9,28.9,65,30.38,10.0,Calm,Calm,-,N/A,,Clear,0,2012-11-30 22:54:00
8:54 PM,35.1,28.9,78,30.40,10.0,NNW,5.8,-,N/A,,Mostly Cloudy,330,2012-12-01 01:54:00
9:54 PM,35.1,28.9,78,30.40,10.0,NNE,4.6,-,N/A,,Partly Cloudy,30,2012-12-01 02:54:00
10:54 PM,36.0,30.0,79,30.41,10.0,North,3.5,-,N/A,,Mostly Cloudy,360,2012-12-01 03:54:00
11:54 PM,36.0,30.0,79,30.41,10.0,North,3.5,-,N/A,,Mostly Cloudy,360,2012-12-01 04:54:00